Time,TemperatureF,DewpointF,PressureIn,WindDirection,WindDirectionDegrees,WindSpeedMPH,WindSpeedGustMPH,Humidity,HourlyPrecipIn,Conditions,Clouds,dailyrainin,SoftwareType,DateUTC
2013-03-19 00:02:00,23.8,12.3,30.14,North,0,0.0,0.0,61,0.00,,---,0.00,VWS V14.00,2013-03-19 07:02:00,
2013-03-19 00:07:00,23.8,12.7,30.14,North,0,0.0,0.0,62,0.00,,---,0.00,VWS V14.00,2013-03-19 07:07:00,
2013-03-19 00:12:00,23.5,12.4,30.14,North,0,0.0,0.0,62,0.00,,---,0.00,VWS V14.00,2013-03-19 07:12:00,
2013-03-19 00:18:00,23.3,12.9,30.12,North,0,0.0,0.0,64,0.00,,---,0.00,VWS V14.00,2013-03-19 07:18:00,
2013-03-19 00:23:00,23.2,12.5,30.12,North,0,0.0,0.0,63,0.00,,---,0.00,VWS V14.00,2013-03-19 07:23:00,
2013-03-19 00:28:00,23.2,12.5,30.12,North,0,0.0,0.0,63,0.00,,---,0.00,VWS V14.00,2013-03-19 07:28:00,
2013-03-19 00:33:00,23.0,12.3,30.11,North,0,0.0,0.0,63,0.00,,---,0.00,VWS V14.00,2013-03-19 07:33:00,
2013-03-19 00:38:00,23.0,12.6,30.11,North,0,0.0,0.0,64,0.00,,---,0.00,VWS V14.00,2013-03-19 07:38:00,
2013-03-19 00:43:00,23.0,12.3,30.11,North,0,0.0,0.0,63,0.00,,---,0.00,VWS V14.00,2013-03-19 07:43:00,
2013-03-19 00:48:00,23.0,12.6,30.11,North,0,0.0,0.0,64,0.00,,---,0.00,VWS V14.00,2013-03-19 07:48:00,
2013-03-19 00:54:00,22.9,12.2,30.11,North,0,0.0,0.0,63,0.00,,---,0.00,VWS V14.00,2013-03-19 07:54:00,
2013-03-19 00:59:00,22.9,12.9,30.11,North,0,0.0,0.0,65,0.00,,---,0.00,VWS V14.00,2013-03-19 07:59:00,
2013-03-19 01:04:00,22.9,12.9,30.10,North,0,0.0,0.0,65,0.00,,---,0.00,VWS V14.00,2013-03-19 08:04:00,
2013-03-19 01:09:00,22.7,13.4,30.10,North,0,0.0,0.0,67,0.00,,---,0.00,VWS V14.00,2013-03-19 08:09:00,
2013-03-19 01:15:00,22.7,13.4,30.10,North,0,0.0,0.0,67,0.00,,---,0.00,VWS V14.00,2013-03-19 08:15:00,
2013-03-19 01:20:00,22.7,13.4,30.07,North,0,0.0,0.0,67,0.00,,---,0.00,VWS V14.00,2013-03-19 08:20:00,
2013-03-19 01:25:00,22.7,13.4,30.07,North,0,0.0,0.0,67,0.00,,---,0.00,VWS V14.00,2013-03-19 08:25:00,
2013-03-19 01:30:00,22.5,13.2,30.07,North,0,0.0,0.0,67,0.00,,---,0.00,VWS V14.00,2013-03-19 08:30:00,
2013-03-19 01:36:00,22.5,13.6,30.07,North,0,0.0,0.0,68,0.00,,---,0.00,VWS V14.00,2013-03-19 08:36:00,
2013-03-19 01:41:00,22.4,13.4,30.07,North,0,0.0,0.0,68,0.00,,---,0.00,VWS V14.00,2013-03-19 08:41:00,
2013-03-19 01:46:00,22.2,13.3,30.08,North,0,0.0,0.0,68,0.00,,---,0.00,VWS V14.00,2013-03-19 08:46:00,
2013-03-19 01:51:00,22.2,12.9,30.08,North,0,0.0,0.0,67,0.00,,---,0.00,VWS V14.00,2013-03-19 08:51:00,
2013-03-19 01:56:00,22.4,13.1,30.08,North,0,0.0,0.0,67,0.00,,---,0.00,VWS V14.00,2013-03-19 08:56:00,
2013-03-19 02:01:00,22.7,13.7,30.07,North,0,0.0,0.0,68,0.00,,---,0.00,VWS V14.00,2013-03-19 09:01:00,
2013-03-19 02:07:00,22.9,13.9,30.07,North,0,0.0,0.0,68,0.00,,---,0.00,VWS V14.00,2013-03-19 09:07:00,
2013-03-19 02:12:00,23.0,14.0,30.07,North,0,0.0,0.0,68,0.00,,---,0.00,VWS V14.00,2013-03-19 09:12:00,
2013-03-19 02:17:00,23.2,14.2,30.08,North,0,0.0,0.0,68,0.00,,---,0.00,VWS V14.00,2013-03-19 09:17:00,
2013-03-19 02:22:00,23.5,14.2,30.08,North,0,0.0,0.0,67,0.00,,---,0.00,VWS V14.00,2013-03-19 09:22:00,
2013-03-19 02:27:00,23.6,14.3,30.08,North,0,0.0,0.0,67,0.00,,---,0.00,VWS V14.00,2013-03-19 09:27:00,
2013-03-19 02:33:00,23.8,14.1,30.07,North,0,0.0,0.0,66,0.00,,---,0.00,VWS V14.00,2013-03-19 09:33:00,
2013-03-19 02:38:00,23.8,14.1,30.07,North,0,0.0,1.0,66,0.00,,---,0.00,VWS V14.00,2013-03-19 09:38:00,
2013-03-19 02:43:00,23.6,14.3,30.07,North,0,0.0,0.0,67,0.00,,---,0.00,VWS V14.00,2013-03-19 09:43:00,
2013-03-19 02:48:00,23.6,14.3,30.06,North,0,0.0,0.0,67,0.00,,---,0.00,VWS V14.00,2013-03-19 09:48:00,
2013-03-19 02:53:00,23.8,14.5,30.06,North,0,0.0,0.0,67,0.00,,---,0.00,VWS V14.00,2013-03-19 09:53:00,
2013-03-19 02:58:00,23.8,14.8,30.06,North,0,0.0,0.0,68,0.00,,---,0.00,VWS V14.00,2013-03-19 09:58:00,
2013-03-19 03:03:00,23.8,14.5,30.06,North,0,0.0,0.0,67,0.00,,---,0.00,VWS V14.00,2013-03-19 10:03:00,
2013-03-19 03:09:00,23.8,14.5,30.06,North,0,0.0,0.0,67,0.00,,---,0.00,VWS V14.00,2013-03-19 10:09:00,
2013-03-19 03:14:00,23.8,14.5,30.06,North,0,0.0,0.0,67,0.00,,---,0.00,VWS V14.00,2013-03-19 10:14:00,
2013-03-19 03:19:00,23.9,14.6,30.06,North,0,0.0,0.0,67,0.00,,---,0.00,VWS V14.00,2013-03-19 10:19:00,
2013-03-19 03:24:00,24.1,14.7,30.06,North,0,0.0,0.0,67,0.00,,---,0.00,VWS V14.00,2013-03-19 10:24:00,
2013-03-19 03:30:00,24.1,15.1,30.05,North,0,0.0,0.0,68,0.00,,---,0.00,VWS V14.00,2013-03-19 10:30:00,
2013-03-19 03:35:00,24.2,15.2,30.05,North,0,0.0,0.0,68,0.00,,---,0.00,VWS V14.00,2013-03-19 10:35:00,
2013-03-19 03:40:00,24.4,15.0,30.05,North,0,0.0,0.0,67,0.00,,---,0.00,VWS V14.00,2013-03-19 10:40:00,
2013-03-19 03:45:00,24.5,15.1,30.05,North,0,0.0,0.0,67,0.00,,---,0.00,VWS V14.00,2013-03-19 10:45:00,
2013-03-19 03:50:00,24.7,15.0,30.05,North,0,0.0,0.0,66,0.00,,---,0.00,VWS V14.00,2013-03-19 10:50:00,
2013-03-19 03:56:00,24.8,15.1,30.05,North,0,0.0,0.0,66,0.00,,---,0.00,VWS V14.00,2013-03-19 10:56:00,
2013-03-19 04:01:00,24.8,15.4,30.05,North,0,0.0,0.0,67,0.00,,---,0.00,VWS V14.00,2013-03-19 11:01:00,
2013-03-19 04:06:00,25.0,15.6,30.05,North,0,0.0,0.0,67,0.00,,---,0.00,VWS V14.00,2013-03-19 11:06:00,
2013-03-19 04:11:00,25.1,15.4,30.05,North,0,0.0,0.0,66,0.00,,---,0.00,VWS V14.00,2013-03-19 11:11:00,
2013-03-19 04:16:00,25.3,15.6,30.05,North,0,0.0,0.0,66,0.00,,---,0.00,VWS V14.00,2013-03-19 11:16:00,
2013-03-19 04:22:00,25.4,15.3,30.05,North,0,0.0,0.0,65,0.00,,---,0.00,VWS V14.00,2013-03-19 11:22:00,
2013-03-19 04:27:00,25.4,15.6,30.05,North,0,0.0,0.0,66,0.00,,---,0.00,VWS V14.00,2013-03-19 11:27:00,
2013-03-19 04:32:00,25.4,15.6,30.04,North,0,0.0,0.0,66,0.00,,---,0.00,VWS V14.00,2013-03-19 11:32:00,
2013-03-19 04:37:00,25.4,15.6,30.04,North,0,0.0,0.0,66,0.00,,---,0.00,VWS V14.00,2013-03-19 11:37:00,
2013-03-19 04:42:00,25.4,16.0,30.04,North,0,0.0,0.0,67,0.00,,---,0.00,VWS V14.00,2013-03-19 11:42:00,
2013-03-19 04:48:00,25.4,16.0,30.04,North,0,0.0,0.0,67,0.00,,---,0.00,VWS V14.00,2013-03-19 11:48:00,
2013-03-19 04:53:00,25.4,15.6,30.04,North,0,0.0,0.0,66,0.00,,---,0.00,VWS V14.00,2013-03-19 11:53:00,
2013-03-19 04:58:00,25.4,15.6,30.04,North,0,0.0,0.0,66,0.00,,---,0.00,VWS V14.00,2013-03-19 11:58:00,
2013-03-19 05:03:00,25.6,15.8,30.04,North,0,0.0,0.0,66,0.00,,---,0.00,VWS V14.00,2013-03-19 12:03:00,
2013-03-19 05:08:00,25.6,15.8,30.04,North,0,0.0,0.0,66,0.00,,---,0.00,VWS V14.00,2013-03-19 12:08:00,
2013-03-19 05:13:00,25.7,15.9,30.04,North,0,0.0,0.0,66,0.00,,---,0.00,VWS V14.00,2013-03-19 12:13:00,
2013-03-19 05:19:00,25.7,16.3,30.05,North,0,0.0,0.0,67,0.00,,---,0.00,VWS V14.00,2013-03-19 12:19:00,
2013-03-19 05:24:00,25.7,16.3,30.05,North,0,0.0,0.0,67,0.00,,---,0.00,VWS V14.00,2013-03-19 12:24:00,
2013-03-19 05:29:00,25.8,16.4,30.05,North,0,0.0,0.0,67,0.00,,---,0.00,VWS V14.00,2013-03-19 12:29:00,
2013-03-19 05:34:00,25.8,16.4,30.06,North,0,0.0,0.0,67,0.00,,---,0.00,VWS V14.00,2013-03-19 12:34:00,
2013-03-19 05:39:00,25.8,16.0,30.06,North,0,0.0,0.0,66,0.00,,---,0.00,VWS V14.00,2013-03-19 12:39:00,
2013-03-19 05:44:00,25.8,16.0,30.06,North,0,0.0,0.0,66,0.00,,---,0.00,VWS V14.00,2013-03-19 12:44:00,
2013-03-19 05:49:00,25.8,16.0,30.06,North,0,0.0,0.0,66,0.00,,---,0.00,VWS V14.00,2013-03-19 12:49:00,
2013-03-19 05:55:00,26.0,16.2,30.06,North,0,0.0,0.0,66,0.00,,---,0.00,VWS V14.00,2013-03-19 12:55:00,
2013-03-19 06:00:00,26.0,16.2,30.06,North,0,0.0,0.0,66,0.00,,---,0.00,VWS V14.00,2013-03-19 13:00:00,
2013-03-19 06:05:00,26.0,16.9,30.06,North,0,0.0,2.0,68,0.00,,---,0.00,VWS V14.00,2013-03-19 13:05:00,
2013-03-19 06:10:00,26.1,16.7,30.06,North,0,0.0,2.0,67,0.00,,---,0.00,VWS V14.00,2013-03-19 13:10:00,
2013-03-19 06:15:00,26.1,16.7,30.07,North,0,0.0,2.0,67,0.00,,---,0.00,VWS V14.00,2013-03-19 13:15:00,
2013-03-19 06:20:00,26.3,16.9,30.07,North,0,0.0,2.0,67,0.00,,---,0.00,VWS V14.00,2013-03-19 13:20:00,
2013-03-19 06:26:00,26.1,16.7,30.07,North,0,0.0,1.0,67,0.00,,---,0.00,VWS V14.00,2013-03-19 13:26:00,
2013-03-19 06:31:00,26.3,16.9,30.06,North,0,0.0,1.0,67,0.00,,---,0.00,VWS V14.00,2013-03-19 13:31:00,
2013-03-19 06:36:00,26.3,16.9,30.06,North,0,0.0,0.0,67,0.00,,---,0.00,VWS V14.00,2013-03-19 13:36:00,
2013-03-19 06:41:00,26.1,17.0,30.06,North,359,0.0,2.0,68,0.00,,---,0.00,VWS V14.00,2013-03-19 13:41:00,
2013-03-19 06:46:00,26.1,16.7,30.07,North,359,0.0,2.0,67,0.00,,---,0.00,VWS V14.00,2013-03-19 13:46:00,
2013-03-19 06:52:00,26.3,16.9,30.07,North,359,0.0,0.0,67,0.00,,---,0.00,VWS V14.00,2013-03-19 13:52:00,
2013-03-19 06:57:00,26.3,16.9,30.07,North,359,0.0,0.0,67,0.00,,---,0.00,VWS V14.00,2013-03-19 13:57:00,
2013-03-19 07:02:00,26.3,17.2,30.07,North,359,0.0,0.0,68,0.00,,---,0.00,VWS V14.00,2013-03-19 14:02:00,
2013-03-19 07:07:00,26.1,16.7,30.07,North,359,0.0,0.0,67,0.00,,---,0.00,VWS V14.00,2013-03-19 14:07:00,
2013-03-19 07:12:00,26.1,16.7,30.07,North,359,0.0,0.0,67,0.00,,---,0.00,VWS V14.00,2013-03-19 14:12:00,
2013-03-19 07:17:00,26.0,16.9,30.12,North,359,0.0,0.0,68,0.00,,---,0.00,VWS V14.00,2013-03-19 14:17:00,
2013-03-19 07:23:00,26.1,17.3,30.12,North,359,0.0,0.0,69,0.00,,---,0.00,VWS V14.00,2013-03-19 14:23:00,
2013-03-19 07:28:00,26.0,16.6,30.12,North,359,0.0,0.0,67,0.00,,---,0.00,VWS V14.00,2013-03-19 14:28:00,
2013-03-19 07:33:00,26.1,17.0,30.12,North,359,0.0,0.0,68,0.00,,---,0.00,VWS V14.00,2013-03-19 14:33:00,
2013-03-19 07:38:00,26.1,17.3,30.12,North,359,0.0,0.0,69,0.00,,---,0.00,VWS V14.00,2013-03-19 14:38:00,
2013-03-19 07:43:00,26.3,17.5,30.12,North,359,0.0,1.0,69,0.00,,---,0.00,VWS V14.00,2013-03-19 14:43:00,
2013-03-19 07:48:00,26.3,17.9,30.12,North,359,0.0,1.0,70,0.00,,---,0.00,VWS V14.00,2013-03-19 14:48:00,
2013-03-19 07:53:00,26.6,18.1,30.12,North,359,0.0,0.0,70,0.00,,---,0.00,VWS V14.00,2013-03-19 14:53:00,
2013-03-19 07:59:00,27.0,17.9,30.12,North,359,0.0,0.0,68,0.00,,---,0.00,VWS V14.00,2013-03-19 14:59:00,
2013-03-19 08:04:00,27.5,18.0,30.11,North,359,0.0,0.0,67,0.00,,---,0.00,VWS V14.00,2013-03-19 15:04:00,
2013-03-19 08:09:00,27.8,18.3,30.11,North,359,0.0,0.0,67,0.00,,---,0.00,VWS V14.00,2013-03-19 15:09:00,
2013-03-19 08:14:00,28.1,18.6,30.11,North,359,0.0,0.0,67,0.00,,---,0.00,VWS V14.00,2013-03-19 15:14:00,
2013-03-19 08:19:00,28.2,18.3,30.12,North,359,0.0,0.0,66,0.00,,---,0.00,VWS V14.00,2013-03-19 15:19:00,
2013-03-19 08:24:00,28.5,18.2,30.12,North,359,0.0,0.0,65,0.00,,---,0.00,VWS V14.00,2013-03-19 15:24:00,
2013-03-19 08:30:00,28.8,18.5,30.12,North,359,0.0,0.0,65,0.00,,---,0.00,VWS V14.00,2013-03-19 15:30:00,
2013-03-19 08:35:00,29.3,19.0,30.12,North,359,0.0,0.0,65,0.00,,---,0.00,VWS V14.00,2013-03-19 15:35:00,
2013-03-19 08:40:00,29.7,19.0,30.12,North,359,0.0,0.0,64,0.00,,---,0.00,VWS V14.00,2013-03-19 15:40:00,
2013-03-19 08:45:00,30.1,19.8,30.12,North,359,0.0,0.0,65,0.00,,---,0.00,VWS V14.00,2013-03-19 15:45:00,
2013-03-19 08:50:00,30.7,19.2,30.12,North,359,0.0,0.0,62,0.00,,---,0.00,VWS V14.00,2013-03-19 15:50:00,
2013-03-19 08:55:00,31.3,18.6,30.12,North,359,0.0,0.0,59,0.00,,---,0.00,VWS V14.00,2013-03-19 15:55:00,
2013-03-19 09:01:00,32.1,19.8,30.11,North,354,0.0,2.0,60,0.00,,---,0.00,VWS V14.00,2013-03-19 16:01:00,
2013-03-19 09:06:00,32.7,17.5,30.11,North,359,0.0,2.0,53,0.00,,---,0.00,VWS V14.00,2013-03-19 16:06:00,
2013-03-19 09:11:00,33.1,18.3,30.11,North,359,0.0,0.0,54,0.00,,---,0.00,VWS V14.00,2013-03-19 16:11:00,
2013-03-19 09:17:00,33.7,18.4,30.11,North,359,0.0,0.0,53,0.00,,---,0.00,VWS V14.00,2013-03-19 16:17:00,
2013-03-19 09:22:00,34.4,19.9,30.11,North,359,0.0,0.0,55,0.00,,---,0.00,VWS V14.00,2013-03-19 16:22:00,
2013-03-19 09:27:00,34.9,19.1,30.11,North,354,0.0,2.0,52,0.00,,---,0.00,VWS V14.00,2013-03-19 16:27:00,
2013-03-19 09:32:00,35.3,19.9,30.10,North,354,0.0,0.0,53,0.00,,---,0.00,VWS V14.00,2013-03-19 16:32:00,
2013-03-19 09:38:00,36.0,19.6,30.10,North,354,0.0,0.0,51,0.00,,---,0.00,VWS V14.00,2013-03-19 16:38:00,
2013-03-19 09:43:00,36.6,17.8,30.10,North,359,0.0,2.0,46,0.00,,---,0.00,VWS V14.00,2013-03-19 16:43:00,
2013-03-19 09:48:00,37.0,16.1,30.09,North,349,0.0,3.0,42,0.00,,---,0.00,VWS V14.00,2013-03-19 16:48:00,
2013-03-19 09:53:00,37.5,14.8,30.09,WSW,257,2.0,3.0,39,0.00,,---,0.00,VWS V14.00,2013-03-19 16:53:00,
2013-03-19 09:58:00,37.8,14.5,30.09,WSW,256,0.0,3.0,38,0.00,,---,0.00,VWS V14.00,2013-03-19 16:58:00,
2013-03-19 10:03:00,38.0,15.8,30.08,WSW,256,0.0,0.0,40,0.00,,---,0.00,VWS V14.00,2013-03-19 17:03:00,
2013-03-19 10:08:00,38.3,14.9,30.08,WSW,256,0.0,2.0,38,0.00,,---,0.00,VWS V14.00,2013-03-19 17:08:00,
2013-03-19 10:13:00,38.8,15.4,30.08,WSW,256,0.0,0.0,38,0.00,,---,0.00,VWS V14.00,2013-03-19 17:13:00,
2013-03-19 10:19:00,39.2,14.5,30.08,WSW,256,0.0,2.0,36,0.00,,---,0.00,VWS V14.00,2013-03-19 17:19:00,
2013-03-19 10:24:00,39.5,13.5,30.08,WSW,256,0.0,1.0,34,0.00,,---,0.00,VWS V14.00,2013-03-19 17:24:00,
2013-03-19 10:29:00,39.6,12.2,30.08,WSW,251,2.0,3.0,32,0.00,,---,0.00,VWS V14.00,2013-03-19 17:29:00,
2013-03-19 10:34:00,39.9,12.4,30.06,SSW,206,2.0,6.0,32,0.00,,---,0.00,VWS V14.00,2013-03-19 17:34:00,
2013-03-19 10:39:00,40.2,12.7,30.06,SSW,206,0.0,6.0,32,0.00,,---,0.00,VWS V14.00,2013-03-19 17:39:00,
2013-03-19 10:44:00,40.9,11.9,30.06,SSW,205,2.0,5.0,30,0.00,,---,0.00,VWS V14.00,2013-03-19 17:44:00,
2013-03-19 10:49:00,41.3,15.1,30.06,SSW,209,2.0,5.0,34,0.00,,---,0.00,VWS V14.00,2013-03-19 17:49:00,
2013-03-19 10:55:00,41.6,14.6,30.06,South,186,2.0,6.0,33,0.00,,---,0.00,VWS V14.00,2013-03-19 17:55:00,
2013-03-19 11:00:00,41.8,13.4,30.06,South,189,2.0,6.0,31,0.00,,---,0.00,VWS V14.00,2013-03-19 18:00:00,
2013-03-19 11:05:00,41.9,12.7,30.05,South,189,1.0,4.0,30,0.00,,---,0.00,VWS V14.00,2013-03-19 18:05:00,
2013-03-19 11:10:00,42.5,14.0,30.05,South,189,0.0,5.0,31,0.00,,---,0.00,VWS V14.00,2013-03-19 18:10:00,
2013-03-19 11:15:00,43.8,13.6,30.03,WNW,301,0.0,5.0,29,0.00,,---,0.00,VWS V14.00,2013-03-19 18:15:00,
2013-03-19 11:20:00,44.8,15.3,30.03,NW,306,0.0,5.0,30,0.00,,---,0.00,VWS V14.00,2013-03-19 18:20:00,
2013-03-19 11:25:00,44.5,13.4,30.03,NW,306,0.0,4.0,28,0.00,,---,0.00,VWS V14.00,2013-03-19 18:25:00,
2013-03-19 11:31:00,44.5,13.4,30.03,SW,234,0.0,4.0,28,0.00,,---,0.00,VWS V14.00,2013-03-19 18:31:00,
2013-03-19 11:36:00,44.5,13.4,30.03,SW,233,0.0,2.0,28,0.00,,---,0.00,VWS V14.00,2013-03-19 18:36:00,
2013-03-19 11:41:00,45.1,14.0,30.03,SW,226,0.0,3.0,28,0.00,,---,0.00,VWS V14.00,2013-03-19 18:41:00,
2013-03-19 11:46:00,45.4,15.8,30.02,SSW,203,3.0,8.0,30,0.00,,---,0.00,VWS V14.00,2013-03-19 18:46:00,
2013-03-19 11:51:00,44.9,14.6,30.02,SSW,212,0.0,5.0,29,0.00,,---,0.00,VWS V14.00,2013-03-19 18:51:00,
2013-03-19 11:57:00,45.4,16.5,30.02,SSW,212,0.0,5.0,31,0.00,,---,0.00,VWS V14.00,2013-03-19 18:57:00,
2013-03-19 12:02:00,45.7,14.5,30.01,SSW,203,2.0,2.0,28,0.00,,---,0.00,VWS V14.00,2013-03-19 19:02:00,
2013-03-19 12:07:00,46.1,15.6,30.01,SSW,203,2.0,2.0,29,0.00,,---,0.00,VWS V14.00,2013-03-19 19:07:00,
2013-03-19 12:12:00,46.7,15.3,30.01,West,274,0.0,1.0,28,0.00,,---,0.00,VWS V14.00,2013-03-19 19:12:00,
2013-03-19 12:18:00,47.4,15.9,30.00,West,274,0.0,1.0,28,0.00,,---,0.00,VWS V14.00,2013-03-19 19:18:00,
2013-03-19 12:23:00,48.2,15.8,30.00,West,274,0.0,2.0,27,0.00,,---,0.00,VWS V14.00,2013-03-19 19:23:00,
2013-03-19 12:28:00,48.3,16.7,30.00,West,274,0.0,2.0,28,0.00,,---,0.00,VWS V14.00,2013-03-19 19:28:00,
2013-03-19 12:33:00,48.9,18.9,29.98,West,274,0.0,2.0,30,0.00,,---,0.00,VWS V14.00,2013-03-19 19:33:00,
2013-03-19 12:39:00,48.6,18.6,29.98,SSW,203,2.0,7.0,30,0.00,,---,0.00,VWS V14.00,2013-03-19 19:39:00,
2013-03-19 12:44:00,48.8,18.8,29.98,SSW,210,0.0,3.0,30,0.00,,---,0.00,VWS V14.00,2013-03-19 19:44:00,
2013-03-19 12:49:00,48.3,19.1,29.97,SSW,199,0.0,7.0,31,0.00,,---,0.00,VWS V14.00,2013-03-19 19:49:00,
2013-03-19 12:54:00,48.6,18.6,29.97,SSW,206,2.0,5.0,30,0.00,,---,0.00,VWS V14.00,2013-03-19 19:54:00,
2013-03-19 12:59:00,48.6,18.6,29.97,SSW,205,2.0,5.0,30,0.00,,---,0.00,VWS V14.00,2013-03-19 19:59:00,
2013-03-19 13:04:00,48.9,18.9,29.97,SSW,205,2.0,2.0,30,0.00,,---,0.00,VWS V14.00,2013-03-19 20:04:00,
2013-03-19 13:09:00,48.6,18.6,29.97,SSW,205,2.0,4.0,30,0.00,,---,0.00,VWS V14.00,2013-03-19 20:09:00,
2013-03-19 13:15:00,48.6,19.4,29.97,SSW,205,0.0,3.0,31,0.00,,---,0.00,VWS V14.00,2013-03-19 20:15:00,
2013-03-19 13:20:00,48.6,18.6,29.97,SSW,203,2.0,4.0,30,0.00,,---,0.00,VWS V14.00,2013-03-19 20:20:00,
2013-03-19 13:25:00,48.9,18.1,29.97,SSW,198,3.0,6.0,29,0.00,,---,0.00,VWS V14.00,2013-03-19 20:25:00,
2013-03-19 13:30:00,49.4,19.3,29.96,SSW,193,0.0,6.0,30,0.00,,---,0.00,VWS V14.00,2013-03-19 20:30:00,
2013-03-19 13:35:00,50.4,19.4,29.96,SSW,195,2.0,6.0,29,0.00,,---,0.00,VWS V14.00,2013-03-19 20:35:00,
2013-03-19 13:40:00,50.5,19.5,29.96,SSW,192,0.0,6.0,29,0.00,,---,0.00,VWS V14.00,2013-03-19 20:40:00,
2013-03-19 13:45:00,50.2,20.0,29.95,ESE,110,1.0,4.0,30,0.00,,---,0.00,VWS V14.00,2013-03-19 20:45:00,
2013-03-19 13:51:00,50.4,20.1,29.95,ESE,110,0.0,4.0,30,0.00,,---,0.00,VWS V14.00,2013-03-19 20:51:00,
2013-03-19 13:55:00,50.7,21.9,29.95,SSE,162,3.0,4.0,32,0.00,,---,0.00,VWS V14.00,2013-03-19 20:55:00,
2013-03-19 14:01:00,51.0,22.2,29.93,SSE,147,0.0,4.0,32,0.00,,---,0.00,VWS V14.00,2013-03-19 21:01:00,
2013-03-19 14:06:00,51.4,20.2,29.93,SSW,193,4.0,7.0,29,0.00,,---,0.00,VWS V14.00,2013-03-19 21:06:00,
2013-03-19 14:11:00,51.4,21.0,29.93,SSW,195,0.0,1.0,30,0.00,,---,0.00,VWS V14.00,2013-03-19 21:11:00,
2013-03-19 14:17:00,52.5,21.2,29.91,SSW,196,4.0,6.0,29,0.00,,---,0.00,VWS V14.00,2013-03-19 21:17:00,
2013-03-19 14:22:00,53.1,21.7,29.91,NNW,346,0.0,2.0,29,0.00,,---,0.00,VWS V14.00,2013-03-19 21:22:00,
2013-03-19 14:27:00,53.6,21.3,29.91,NW,316,0.0,6.0,28,0.00,,---,0.00,VWS V14.00,2013-03-19 21:27:00,
2013-03-19 14:32:00,53.6,22.1,29.89,WSW,253,0.0,2.0,29,0.00,,---,0.00,VWS V14.00,2013-03-19 21:32:00,
2013-03-19 14:37:00,54.5,24.5,29.89,WSW,253,0.0,2.0,31,0.00,,---,0.00,VWS V14.00,2013-03-19 21:37:00,
2013-03-19 14:42:00,54.7,24.7,29.89,South,188,3.0,6.0,31,0.00,,---,0.00,VWS V14.00,2013-03-19 21:42:00,
2013-03-19 14:47:00,54.4,24.4,29.88,SSW,192,1.0,6.0,31,0.00,,---,0.00,VWS V14.00,2013-03-19 21:47:00,
2013-03-19 14:53:00,55.1,23.4,29.88,North,359,0.0,4.0,29,0.00,,---,0.00,VWS V14.00,2013-03-19 21:53:00,
2013-03-19 14:58:00,55.0,24.9,29.88,South,181,2.0,10.0,31,0.00,,---,0.00,VWS V14.00,2013-03-19 21:58:00,
2013-03-19 15:03:00,55.0,26.5,29.87,SSW,199,7.0,7.0,33,0.00,,---,0.00,VWS V14.00,2013-03-19 22:03:00,
2013-03-19 15:08:00,54.4,25.2,29.87,SSW,202,3.0,13.0,32,0.00,,---,0.00,VWS V14.00,2013-03-19 22:08:00,
2013-03-19 15:13:00,54.2,27.9,29.87,SSW,212,7.0,10.0,36,0.00,,---,0.00,VWS V14.00,2013-03-19 22:13:00,
2013-03-19 15:18:00,54.1,27.1,29.87,SSW,193,8.0,11.0,35,0.00,,---,0.00,VWS V14.00,2013-03-19 22:18:00,
2013-03-19 15:23:00,53.8,26.1,29.87,SW,223,6.0,10.0,34,0.00,,---,0.00,VWS V14.00,2013-03-19 22:23:00,
2013-03-19 15:29:00,53.5,27.9,29.87,South,185,5.0,10.0,37,0.00,,---,0.00,VWS V14.00,2013-03-19 22:29:00,
2013-03-19 15:34:00,53.5,26.5,29.86,SW,215,2.0,6.0,35,0.00,,---,0.00,VWS V14.00,2013-03-19 22:34:00,
2013-03-19 15:39:00,53.2,28.3,29.86,West,261,7.0,8.0,38,0.00,,---,0.00,VWS V14.00,2013-03-19 22:39:00,
2013-03-19 15:44:00,52.5,25.0,29.86,WSW,258,2.0,10.0,34,0.00,,---,0.00,VWS V14.00,2013-03-19 22:44:00,
2013-03-19 15:49:00,51.9,23.7,29.86,NNW,336,2.0,10.0,33,0.00,,---,0.00,VWS V14.00,2013-03-19 22:49:00,
2013-03-19 15:55:00,51.9,23.0,29.86,North,11,0.0,5.0,32,0.00,,---,0.00,VWS V14.00,2013-03-19 22:55:00,
2013-03-19 16:00:00,51.6,22.7,29.86,North,4,0.0,5.0,32,0.00,,---,0.00,VWS V14.00,2013-03-19 23:00:00,
2013-03-19 16:05:00,51.3,23.2,29.86,North,4,0.0,2.0,33,0.00,,---,0.00,VWS V14.00,2013-03-19 23:05:00,
2013-03-19 16:10:00,51.3,23.2,29.86,North,4,0.0,2.0,33,0.00,,---,0.00,VWS V14.00,2013-03-19 23:10:00,
2013-03-19 16:15:00,51.1,23.7,29.85,North,4,0.0,3.0,34,0.00,,---,0.00,VWS V14.00,2013-03-19 23:15:00,
2013-03-19 16:20:00,51.1,23.0,29.85,North,6,0.0,3.0,33,0.00,,---,0.00,VWS V14.00,2013-03-19 23:20:00,
2013-03-19 16:25:00,51.1,23.0,29.85,North,6,0.0,2.0,33,0.00,,---,0.00,VWS V14.00,2013-03-19 23:25:00,
2013-03-19 16:30:00,51.1,23.7,29.84,North,6,0.0,2.0,34,0.00,,---,0.00,VWS V14.00,2013-03-19 23:30:00,
2013-03-19 16:35:00,51.0,22.9,29.84,North,6,0.0,0.0,33,0.00,,---,0.00,VWS V14.00,2013-03-19 23:35:00,
2013-03-19 16:40:00,50.8,22.8,29.84,North,6,0.0,2.0,33,0.00,,---,0.00,VWS V14.00,2013-03-19 23:40:00,
2013-03-19 16:46:00,50.2,22.9,29.84,North,6,0.0,2.0,34,0.00,,---,0.00,VWS V14.00,2013-03-19 23:46:00,
2013-03-19 16:51:00,50.1,23.5,29.84,North,6,0.0,2.0,35,0.00,,---,0.00,VWS V14.00,2013-03-19 23:51:00,
2013-03-19 16:56:00,49.8,23.9,29.84,North,6,0.0,1.0,36,0.00,,---,0.00,VWS V14.00,2013-03-19 23:56:00,
2013-03-19 17:01:00,49.8,26.5,29.84,North,6,0.0,1.0,40,0.00,,---,0.00,VWS V14.00,2013-03-20 00:01:00,
2013-03-19 17:06:00,49.6,25.7,29.84,North,6,0.0,1.0,39,0.00,,---,0.00,VWS V14.00,2013-03-20 00:06:00,
2013-03-19 17:11:00,49.1,24.6,29.84,North,6,0.0,0.0,38,0.00,,---,0.00,VWS V14.00,2013-03-20 00:11:00,
2013-03-19 17:16:00,48.8,25.6,29.84,North,6,0.0,0.0,40,0.00,,---,0.00,VWS V14.00,2013-03-20 00:16:00,
2013-03-19 17:21:00,48.3,28.5,29.84,North,6,2.0,2.0,46,0.00,,---,0.00,VWS V14.00,2013-03-20 00:21:00,
2013-03-19 17:26:00,47.4,30.2,29.84,WSW,244,0.0,6.0,51,0.00,,---,0.00,VWS V14.00,2013-03-20 00:26:00,
2013-03-19 17:32:00,46.7,31.9,29.84,WSW,248,0.0,0.0,56,0.00,,---,0.00,VWS V14.00,2013-03-20 00:32:00,
2013-03-19 17:37:00,45.5,34.0,29.84,WSW,247,0.0,2.0,64,0.00,,---,0.00,VWS V14.00,2013-03-20 00:37:00,
2013-03-19 17:42:00,44.2,35.0,29.84,NE,49,0.0,3.0,70,0.00,,---,0.01,VWS V14.00,2013-03-20 00:42:00,
2013-03-19 17:47:00,43.8,35.4,29.85,North,356,0.0,3.0,72,0.00,,---,0.01,VWS V14.00,2013-03-20 00:47:00,
2013-03-19 17:52:00,43.5,35.1,29.85,North,356,0.0,0.0,72,0.00,,---,0.01,VWS V14.00,2013-03-20 00:52:00,
2013-03-19 17:57:00,43.1,35.4,29.85,WSW,248,0.0,2.0,74,0.05,,---,0.02,VWS V14.00,2013-03-20 00:57:00,
2013-03-19 18:03:00,43.2,36.5,29.85,WSW,248,1.0,1.0,77,0.06,,---,0.03,VWS V14.00,2013-03-20 01:03:00,
2013-03-19 18:08:00,43.8,37.4,29.85,SSW,195,1.0,5.0,78,0.06,,---,0.04,VWS V14.00,2013-03-20 01:08:00,
2013-03-19 18:13:00,43.9,38.5,29.85,SSW,195,0.0,3.0,81,0.11,,---,0.04,VWS V14.00,2013-03-20 01:13:00,
2013-03-19 18:18:00,44.2,37.8,29.83,SSW,192,2.0,10.0,78,0.06,,---,0.05,VWS V14.00,2013-03-20 01:18:00,
2013-03-19 18:23:00,44.1,37.7,29.83,South,191,2.0,7.0,78,0.12,,---,0.06,VWS V14.00,2013-03-20 01:23:00,
2013-03-19 18:29:00,43.9,38.1,29.83,South,188,6.0,8.0,80,0.10,,---,0.07,VWS V14.00,2013-03-20 01:29:00,
2013-03-19 18:34:00,43.8,38.0,29.83,SSW,192,4.0,7.0,80,0.15,,---,0.08,VWS V14.00,2013-03-20 01:34:00,
2013-03-19 18:39:00,43.5,38.4,29.83,South,189,2.0,10.0,82,0.09,,---,0.08,VWS V14.00,2013-03-20 01:39:00,
2013-03-19 18:44:00,43.5,38.4,29.83,South,188,2.0,7.0,82,0.05,,---,0.08,VWS V14.00,2013-03-20 01:44:00,
2013-03-19 18:50:00,43.3,38.5,29.81,SSW,196,5.0,8.0,83,0.04,,---,0.08,VWS V14.00,2013-03-20 01:50:00,
2013-03-19 18:55:00,43.3,38.5,29.81,SSW,202,6.0,7.0,83,0.00,,---,0.08,VWS V14.00,2013-03-20 01:55:00,
2013-03-19 19:00:00,43.2,37.8,29.80,SSW,193,3.0,11.0,81,0.00,,---,0.08,VWS V14.00,2013-03-20 02:00:00,
2013-03-19 19:05:00,43.2,38.4,29.80,SSW,193,6.0,10.0,83,0.00,,---,0.08,VWS V14.00,2013-03-20 02:05:00,
2013-03-19 19:10:00,43.2,38.1,29.80,South,182,2.0,10.0,82,0.00,,---,0.08,VWS V14.00,2013-03-20 02:10:00,
2013-03-19 19:16:00,43.2,38.4,29.79,SSW,193,4.0,7.0,83,0.00,,---,0.08,VWS V14.00,2013-03-20 02:16:00,
2013-03-19 19:21:00,43.2,38.1,29.79,SSW,198,2.0,7.0,82,0.00,,---,0.08,VWS V14.00,2013-03-20 02:21:00,
2013-03-19 19:26:00,43.2,37.8,29.79,South,189,10.0,12.0,81,0.00,,---,0.08,VWS V14.00,2013-03-20 02:26:00,
2013-03-19 19:31:00,43.1,38.0,29.80,South,174,6.0,6.0,82,0.00,,---,0.09,VWS V14.00,2013-03-20 02:31:00,
2013-03-19 19:37:00,42.9,38.1,29.80,South,184,7.0,12.0,83,0.00,,---,0.09,VWS V14.00,2013-03-20 02:37:00,
2013-03-19 19:42:00,42.8,37.7,29.80,South,174,3.0,3.0,82,0.04,,---,0.10,VWS V14.00,2013-03-20 02:42:00,
2013-03-19 19:47:00,42.5,37.7,29.79,SSW,209,5.0,10.0,83,0.04,,---,0.10,VWS V14.00,2013-03-20 02:47:00,
2013-03-19 19:52:00,42.3,37.8,29.79,SSW,193,7.0,7.0,84,0.06,,---,0.11,VWS V14.00,2013-03-20 02:52:00,
2013-03-19 19:57:00,42.2,37.7,29.79,South,191,3.0,7.0,84,0.06,,---,0.11,VWS V14.00,2013-03-20 02:57:00,
2013-03-19 20:02:00,42.2,37.4,29.79,SSW,193,7.0,10.0,83,0.08,,---,0.12,VWS V14.00,2013-03-20 03:02:00,
2013-03-19 20:07:00,42.1,37.0,29.79,SSW,196,5.0,12.0,82,0.08,,---,0.12,VWS V14.00,2013-03-20 03:07:00,
2013-03-19 20:12:00,42.1,37.6,29.79,SSW,192,5.0,11.0,84,0.05,,---,0.12,VWS V14.00,2013-03-20 03:12:00,
2013-03-19 20:17:00,42.1,37.0,29.75,SSW,203,7.0,13.0,82,0.00,,---,0.12,VWS V14.00,2013-03-20 03:17:00,
2013-03-19 20:23:00,41.9,37.4,29.75,South,178,3.0,13.0,84,0.00,,---,0.12,VWS V14.00,2013-03-20 03:23:00,
2013-03-19 20:28:00,41.8,37.3,29.75,SSW,196,6.0,13.0,84,0.00,,---,0.12,VWS V14.00,2013-03-20 03:28:00,
2013-03-19 20:33:00,41.8,37.3,29.75,SSW,192,6.0,12.0,84,0.00,,---,0.13,VWS V14.00,2013-03-20 03:33:00,
2013-03-19 20:38:00,41.8,37.0,29.75,SSW,193,7.0,17.0,83,0.00,,---,0.13,VWS V14.00,2013-03-20 03:38:00,
2013-03-19 20:43:00,41.9,37.4,29.75,SSW,203,14.0,17.0,84,0.00,,---,0.13,VWS V14.00,2013-03-20 03:43:00,
2013-03-19 20:49:00,41.8,36.7,29.74,South,185,8.0,17.0,82,0.00,,---,0.13,VWS V14.00,2013-03-20 03:49:00,
2013-03-19 20:54:00,41.8,36.7,29.74,SSW,199,6.0,13.0,82,0.00,,---,0.13,VWS V14.00,2013-03-20 03:54:00,
2013-03-19 20:59:00,41.8,36.7,29.74,SSW,192,5.0,13.0,82,0.00,,---,0.13,VWS V14.00,2013-03-20 03:59:00,
2013-03-19 21:00:00,41.6,36.8,29.73,SSW,208,12.0,13.0,83,0.00,,---,0.13,VWS V14.00,2013-03-20 04:00:00,
2013-03-19 21:02:00,41.8,36.7,29.73,SSW,200,8.0,14.0,82,0.00,,---,0.13,VWS V14.00,2013-03-20 04:02:00,
2013-03-19 21:07:00,41.9,36.8,29.73,SSW,192,7.0,14.0,82,0.00,,---,0.13,VWS V14.00,2013-03-20 04:07:00,
2013-03-19 21:13:00,41.9,36.5,29.73,SSW,210,13.0,14.0,81,0.00,,---,0.13,VWS V14.00,2013-03-20 04:13:00,
2013-03-19 21:18:00,41.9,36.8,29.71,SSW,203,9.0,14.0,82,0.00,,---,0.13,VWS V14.00,2013-03-20 04:18:00,
2013-03-19 21:23:00,41.9,36.8,29.71,SSW,206,8.0,11.0,82,0.00,,---,0.13,VWS V14.00,2013-03-20 04:23:00,
2013-03-19 21:28:00,42.2,36.5,29.71,South,188,6.0,13.0,80,0.00,,---,0.13,VWS V14.00,2013-03-20 04:28:00,
2013-03-19 21:33:00,42.3,36.9,29.70,SSW,192,6.0,7.0,81,0.00,,---,0.13,VWS V14.00,2013-03-20 04:33:00,
2013-03-19 21:38:00,42.3,37.8,29.70,South,181,10.0,14.0,84,0.00,,---,0.13,VWS V14.00,2013-03-20 04:38:00,
2013-03-19 21:44:00,42.3,37.5,29.70,SSW,193,5.0,11.0,83,0.00,,---,0.13,VWS V14.00,2013-03-20 04:44:00,
2013-03-19 21:49:00,42.5,37.4,29.69,SSW,195,10.0,16.0,82,0.00,,---,0.13,VWS V14.00,2013-03-20 04:49:00,
2013-03-19 21:54:00,42.6,37.8,29.69,South,189,10.0,14.0,83,0.00,,---,0.13,VWS V14.00,2013-03-20 04:54:00,
2013-03-19 21:59:00,42.6,37.5,29.69,South,191,11.0,14.0,82,0.00,,---,0.14,VWS V14.00,2013-03-20 04:59:00,
2013-03-19 22:04:00,42.8,37.4,29.70,South,184,11.0,13.0,81,0.00,,---,0.14,VWS V14.00,2013-03-20 05:04:00,
2013-03-19 22:09:00,42.6,37.2,29.70,SSW,193,10.0,14.0,81,0.00,,---,0.14,VWS V14.00,2013-03-20 05:09:00,
2013-03-19 22:14:00,42.5,37.4,29.70,SSW,195,6.0,13.0,82,0.00,,---,0.14,VWS V14.00,2013-03-20 05:14:00,
2013-03-19 22:20:00,42.5,37.7,29.67,SSW,192,11.0,13.0,83,0.00,,---,0.14,VWS V14.00,2013-03-20 05:20:00,
2013-03-19 22:25:00,42.6,37.5,29.67,SSW,209,12.0,17.0,82,0.00,,---,0.14,VWS V14.00,2013-03-20 05:25:00,
2013-03-19 22:30:00,42.8,36.4,29.66,SSW,200,16.0,25.0,78,0.00,,---,0.14,VWS V14.00,2013-03-20 05:30:00,
2013-03-19 22:35:00,42.9,36.8,29.66,SSW,199,8.0,22.0,79,0.00,,---,0.14,VWS V14.00,2013-03-20 05:35:00,
2013-03-19 22:40:00,42.5,37.1,29.66,SSW,192,12.0,22.0,81,0.00,,---,0.14,VWS V14.00,2013-03-20 05:40:00,
2013-03-19 22:45:00,42.6,36.9,29.65,SW,219,20.0,28.0,80,0.00,,---,0.14,VWS V14.00,2013-03-20 05:45:00,
2013-03-19 22:51:00,42.9,36.5,29.65,SW,217,13.0,28.0,78,0.00,,---,0.14,VWS V14.00,2013-03-20 05:51:00,
2013-03-19 22:56:00,43.1,36.7,29.65,South,182,12.0,27.0,78,0.00,,---,0.14,VWS V14.00,2013-03-20 05:56:00,
2013-03-19 23:01:00,42.8,36.4,29.63,SSW,193,17.0,17.0,78,0.00,,---,0.14,VWS V14.00,2013-03-20 06:01:00,
2013-03-19 23:06:00,42.8,36.4,29.63,SSW,196,11.0,21.0,78,0.00,,---,0.14,VWS V14.00,2013-03-20 06:06:00,
2013-03-19 23:12:00,42.8,36.4,29.63,SW,215,14.0,27.0,78,0.00,,---,0.14,VWS V14.00,2013-03-20 06:12:00,
2013-03-19 23:17:00,42.6,35.9,29.61,SSW,196,11.0,27.0,77,0.00,,---,0.14,VWS V14.00,2013-03-20 06:17:00,
2013-03-19 23:22:00,42.8,35.4,29.61,SSW,208,17.0,25.0,75,0.00,,---,0.14,VWS V14.00,2013-03-20 06:22:00,
2013-03-19 23:27:00,42.6,35.9,29.61,SSW,193,10.0,25.0,77,0.00,,---,0.14,VWS V14.00,2013-03-20 06:27:00,
2013-03-19 23:33:00,42.6,35.9,29.61,South,186,11.0,14.0,77,0.00,,---,0.14,VWS V14.00,2013-03-20 06:33:00,
2013-03-19 23:38:00,42.5,36.1,29.61,SW,223,13.0,20.0,78,0.00,,---,0.14,VWS V14.00,2013-03-20 06:38:00,
2013-03-19 23:43:00,42.5,35.8,29.61,SSW,200,17.0,25.0,77,0.00,,---,0.14,VWS V14.00,2013-03-20 06:43:00,
2013-03-19 23:48:00,42.5,35.8,29.62,SSW,212,14.0,28.0,77,0.00,,---,0.14,VWS V14.00,2013-03-20 06:48:00,
2013-03-19 23:53:00,42.2,36.2,29.62,SSW,195,13.0,21.0,79,0.00,,---,0.14,VWS V14.00,2013-03-20 06:53:00,
2013-03-19 23:59:00,42.3,35.6,29.62,SSW,196,14.0,21.0,77,0.00,,---,0.14,VWS V14.00,2013-03-20 06:59:00,